MAU844 FACT-FIMP

Flight info

Callsign MAU844
Flight time N/A
Altitude 39000
Route OKTED1B OKTED UQ12 DUNSA DCT EVIDO UA402 ETGUN/N0479F410 UA402 GETIR DCT SDG DCT ETKIS DCT FF
Aircraft A359/H-SDE2E3GHIJ1J3J4J5LM1ORWXY/LB1D1

Departure

Time N/A
Airport Cape Town International Airport (FACT)

Arrival

Time 2026-05-06 15:28
Airport Sir Seewoosagur Ramgoolam International Airport (FIMP)
Time Latitude Longitude Altitude Speed Heading
2026-05-06 13:43 -25.82984 44.31337 40997 ft 526 kts 69°
2026-05-06 13:44 -25.81867 44.35203 40996 ft 526 kts 69°
2026-05-06 13:44 -25.79644 44.42877 40984 ft 526 kts 69°
2026-05-06 13:45 -25.77405 44.50591 40996 ft 525 kts 69°
2026-05-06 13:45 -25.74040 44.62151 40993 ft 525 kts 69°
2026-05-06 13:46 -25.71793 44.69848 40993 ft 525 kts 69°
2026-05-06 13:46 -25.69541 44.77549 40997 ft 525 kts 69°
2026-05-06 13:47 -25.67286 44.85241 40999 ft 525 kts 69°
2026-05-06 13:47 -25.65024 44.92941 40999 ft 525 kts 69°
2026-05-06 13:48 -25.62762 45.00623 40992 ft 525 kts 69°
2026-05-06 13:48 -25.60496 45.08303 41001 ft 524 kts 69°
2026-05-06 13:49 -25.58227 45.15976 40998 ft 524 kts 69°
2026-05-06 13:49 -25.55955 45.23644 41002 ft 524 kts 69°
2026-05-06 13:50 -25.53678 45.31310 40997 ft 524 kts 69°
2026-05-06 13:50 -25.51401 45.38962 41000 ft 523 kts 69°
2026-05-06 13:51 -25.49120 45.46612 40993 ft 524 kts 69°
2026-05-06 13:51 -25.46833 45.54264 40995 ft 524 kts 69°
2026-05-06 13:52 -25.44541 45.61915 40995 ft 524 kts 69°
2026-05-06 13:52 -25.42248 45.69558 40995 ft 523 kts 69°
2026-05-06 13:53 -25.39950 45.77198 40995 ft 523 kts 69°
2026-05-06 13:53 -25.37655 45.84814 40994 ft 524 kts 69°
2026-05-06 13:54 -25.35345 45.92462 40997 ft 525 kts 69°
2026-05-06 13:54 -25.33031 46.00109 41002 ft 525 kts 69°
2026-05-06 13:55 -25.30710 46.07761 41000 ft 525 kts 69°
2026-05-06 13:55 -25.28387 46.15407 40998 ft 525 kts 69°
2026-05-06 13:56 -25.26073 46.23003 41000 ft 525 kts 69°
2026-05-06 13:56 -25.23726 46.30694 41000 ft 524 kts 69°
2026-05-06 13:57 -25.21395 46.38317 40997 ft 524 kts 69°
2026-05-06 13:57 -25.19074 46.45892 40997 ft 524 kts 69°
2026-05-06 13:58 -25.17114 46.52276 40999 ft 525 kts 69°
2026-05-06 13:58 -25.14769 46.59900 40991 ft 524 kts 70°
2026-05-06 13:59 -25.12424 46.67509 41000 ft 523 kts 69°
2026-05-06 13:59 -25.10078 46.75107 40992 ft 523 kts 70°
2026-05-06 14:00 -25.07728 46.82699 41012 ft 523 kts 69°
2026-05-06 14:00 -25.05374 46.90292 40967 ft 523 kts 69°
2026-05-06 14:01 -25.03009 46.97825 40968 ft 522 kts 68°
2026-05-06 14:01 -25.00221 47.05171 40969 ft 521 kts 64°
2026-05-06 14:02 -24.97271 47.12464 40978 ft 521 kts 64°
2026-05-06 14:02 -24.94367 47.19792 40988 ft 521 kts 65°
2026-05-06 14:03 -24.91510 47.27134 40987 ft 521 kts 65°
2026-05-06 14:03 -24.88667 47.34475 40991 ft 521 kts 65°
2026-05-06 14:04 -24.85834 47.41815 40989 ft 521 kts 65°
2026-05-06 14:04 -24.82997 47.49147 40987 ft 521 kts 65°
2026-05-06 14:05 -24.80148 47.56491 40984 ft 521 kts 65°
2026-05-06 14:05 -24.77300 47.63818 40992 ft 521 kts 65°
2026-05-06 14:06 -24.74451 47.71138 40990 ft 521 kts 65°
2026-05-06 14:06 -24.71598 47.78456 40994 ft 521 kts 65°
2026-05-06 14:07 -24.68748 47.85750 40981 ft 521 kts 65°
2026-05-06 14:07 -24.65889 47.93059 40991 ft 520 kts 65°
2026-05-06 14:08 -24.63028 48.00360 40995 ft 520 kts 65°
2026-05-06 14:08 -24.60167 48.07647 40997 ft 520 kts 65°
2026-05-06 14:09 -24.57299 48.14939 40998 ft 520 kts 65°
2026-05-06 14:09 -24.54434 48.22213 40997 ft 520 kts 65°
2026-05-06 14:10 -24.51541 48.29547 41002 ft 520 kts 65°
2026-05-06 14:10 -24.48664 48.36824 41002 ft 520 kts 65°
2026-05-06 14:11 -24.45782 48.44106 41006 ft 520 kts 65°
2026-05-06 14:11 -24.42916 48.51334 41002 ft 520 kts 65°
2026-05-06 14:12 -24.40027 48.58607 41008 ft 520 kts 65°
2026-05-06 14:12 -24.37139 48.65866 41012 ft 519 kts 65°
2026-05-06 14:13 -24.34254 48.73106 41011 ft 512 kts 65°
2026-05-06 14:13 -24.31394 48.80272 41013 ft 516 kts 65°
2026-05-06 14:14 -24.28500 48.87506 41010 ft 520 kts 65°
2026-05-06 14:14 -24.25600 48.94749 41014 ft 519 kts 65°
2026-05-06 14:15 -24.22697 49.01987 41014 ft 518 kts 65°
2026-05-06 14:15 -24.19793 49.09214 41016 ft 518 kts 65°
2026-05-06 14:16 -24.16885 49.16440 41019 ft 519 kts 65°
2026-05-06 14:16 -24.13971 49.23670 41021 ft 519 kts 65°
2026-05-06 14:17 -24.11056 49.30888 41024 ft 519 kts 65°
2026-05-06 14:17 -24.08134 49.38114 41021 ft 519 kts 65°
2026-05-06 14:18 -24.05209 49.45335 41022 ft 519 kts 65°
2026-05-06 14:18 -24.02284 49.52546 41028 ft 519 kts 65°
2026-05-06 14:19 -23.99356 49.59751 41022 ft 518 kts 65°
2026-05-06 14:19 -23.96425 49.66951 41023 ft 518 kts 65°
2026-05-06 14:20 -23.93508 49.74106 41032 ft 518 kts 65°
2026-05-06 14:20 -23.90569 49.81304 41027 ft 519 kts 65°
2026-05-06 14:21 -23.87626 49.88501 41031 ft 518 kts 65°
2026-05-06 14:21 -23.84683 49.95685 41027 ft 518 kts 65°
2026-05-06 14:22 -23.81734 50.02876 41033 ft 518 kts 65°
2026-05-06 14:22 -23.78783 50.10054 41034 ft 518 kts 65°
2026-05-06 14:23 -23.75824 50.17240 41024 ft 518 kts 65°
2026-05-06 14:23 -23.72870 50.24403 41034 ft 517 kts 65°
2026-05-06 14:24 -23.69915 50.31557 41035 ft 517 kts 65°
2026-05-06 14:24 -23.66959 50.38703 41035 ft 517 kts 65°
2026-05-06 14:25 -23.63994 50.45860 41038 ft 517 kts 65°
2026-05-06 14:25 -23.61033 50.52996 41035 ft 517 kts 65°
2026-05-06 14:26 -23.58063 50.60144 41034 ft 516 kts 65°
2026-05-06 14:26 -23.55098 50.67266 41036 ft 516 kts 65°
2026-05-06 14:27 -23.52125 50.74398 41040 ft 516 kts 65°
2026-05-06 14:27 -23.49151 50.81520 41040 ft 516 kts 65°
2026-05-06 14:28 -23.46174 50.88640 41044 ft 516 kts 65°
2026-05-06 14:28 -23.43199 50.95744 41042 ft 516 kts 65°
2026-05-06 14:29 -23.40241 51.02796 41040 ft 516 kts 65°
2026-05-06 14:29 -23.37258 51.09896 41040 ft 516 kts 65°
2026-05-06 14:30 -23.34273 51.16991 41045 ft 516 kts 65°
2026-05-06 14:30 -23.31288 51.24077 41043 ft 515 kts 65°
2026-05-06 14:31 -23.28299 51.31158 41040 ft 515 kts 65°
2026-05-06 14:31 -23.25311 51.38229 41040 ft 515 kts 65°
2026-05-06 14:32 -23.22317 51.45302 41039 ft 515 kts 65°
2026-05-06 14:32 -23.19320 51.52372 41040 ft 515 kts 65°
2026-05-06 14:33 -23.16321 51.59435 41041 ft 514 kts 65°
2026-05-06 14:33 -23.13324 51.66484 41043 ft 513 kts 65°
2026-05-06 14:34 -23.10328 51.73521 41042 ft 513 kts 65°
2026-05-06 14:34 -23.07327 51.80557 41042 ft 513 kts 65°
2026-05-06 14:35 -23.04323 51.87590 41042 ft 514 kts 65°
2026-05-06 14:35 -23.01317 51.94620 41040 ft 513 kts 65°
2026-05-06 14:36 -22.98313 52.01633 41043 ft 512 kts 65°
2026-05-06 14:36 -22.95304 52.08647 41043 ft 512 kts 65°
2026-05-06 14:37 -22.92296 52.15649 41042 ft 512 kts 65°
2026-05-06 14:37 -22.89281 52.22656 41045 ft 513 kts 65°
2026-05-06 14:38 -22.86266 52.29654 41038 ft 512 kts 65°
2026-05-06 14:38 -22.83245 52.36654 41042 ft 512 kts 65°
2026-05-06 14:39 -22.80227 52.43640 41045 ft 512 kts 65°
2026-05-06 14:39 -22.77204 52.50625 41045 ft 512 kts 65°
2026-05-06 14:40 -22.74179 52.57604 41042 ft 512 kts 65°
2026-05-06 14:40 -22.71149 52.64585 41042 ft 512 kts 65°
2026-05-06 14:41 -22.68138 52.71514 41042 ft 512 kts 65°
2026-05-06 14:41 -22.65103 52.78486 41046 ft 512 kts 65°
2026-05-06 14:42 -22.62065 52.85456 41045 ft 512 kts 65°
2026-05-06 14:42 -22.59022 52.92428 41042 ft 512 kts 65°
2026-05-06 14:43 -22.56490 52.98221 41042 ft 512 kts 65°
2026-05-06 14:43 -22.53442 53.05185 41041 ft 511 kts 65°
2026-05-06 14:44 -22.50400 53.12126 41045 ft 511 kts 65°
2026-05-06 14:45 -22.45834 53.22526 41043 ft 510 kts 65°
2026-05-06 14:45 -22.42786 53.29457 41045 ft 511 kts 65°
2026-05-06 14:46 -22.39609 53.36317 41046 ft 511 kts 58°
2026-05-06 14:46 -22.35528 53.42652 41044 ft 510 kts 53°
2026-05-06 14:47 -22.31319 53.48745 41047 ft 509 kts 53°
2026-05-06 14:47 -22.27027 53.54886 41044 ft 509 kts 53°
2026-05-06 14:48 -22.22799 53.60950 41040 ft 509 kts 53°
2026-05-06 14:48 -22.18558 53.67048 41041 ft 509 kts 53°
2026-05-06 14:49 -22.14317 53.73144 41042 ft 507 kts 53°
2026-05-06 14:49 -22.10086 53.79220 41042 ft 507 kts 53°
2026-05-06 14:50 -22.05845 53.85303 41045 ft 507 kts 53°
2026-05-06 14:50 -22.01599 53.91384 41042 ft 507 kts 53°
2026-05-06 14:51 -21.97359 53.97450 41046 ft 506 kts 53°
2026-05-06 14:51 -21.93131 54.03494 41046 ft 505 kts 53°
2026-05-06 14:52 -21.88903 54.09529 41043 ft 505 kts 53°
2026-05-06 14:52 -21.84673 54.15561 41042 ft 505 kts 53°
2026-05-06 14:53 -21.80441 54.21589 41039 ft 505 kts 53°
2026-05-06 14:53 -21.76216 54.27601 41046 ft 503 kts 53°
2026-05-06 14:54 -21.71990 54.33606 41043 ft 503 kts 53°
2026-05-06 14:54 -21.67765 54.39605 41045 ft 503 kts 53°
2026-05-06 14:55 -21.63540 54.45596 41045 ft 503 kts 53°
2026-05-06 14:55 -21.59314 54.51584 41044 ft 502 kts 53°
2026-05-06 14:56 -21.55094 54.57554 41042 ft 501 kts 53°
2026-05-06 14:56 -21.50879 54.63513 41043 ft 501 kts 53°
2026-05-06 14:57 -21.46658 54.69473 41043 ft 501 kts 53°
2026-05-06 14:57 -21.42441 54.75421 41046 ft 501 kts 53°
2026-05-06 14:58 -21.38221 54.81366 41042 ft 500 kts 53°
2026-05-06 14:58 -21.34013 54.87289 41043 ft 499 kts 53°
2026-05-06 14:59 -21.29804 54.93206 41041 ft 499 kts 53°
2026-05-06 14:59 -21.25598 54.99114 41042 ft 499 kts 53°
2026-05-06 15:00 -21.21387 55.05022 41042 ft 499 kts 53°
2026-05-06 15:00 -21.17201 55.10889 41045 ft 498 kts 53°
2026-05-06 15:01 -21.12995 55.16777 41045 ft 498 kts 53°
2026-05-06 15:01 -21.08789 55.22659 41042 ft 497 kts 53°
2026-05-06 15:02 -21.04581 55.28538 41037 ft 497 kts 53°
2026-05-06 15:02 -21.00372 55.34413 41028 ft 497 kts 53°
2026-05-06 15:03 -20.96162 55.40281 40977 ft 497 kts 53°
2026-05-06 15:03 -20.94065 55.43203 40746 ft 494 kts 53°
2026-05-06 15:03 -20.91972 55.46117 40451 ft 492 kts 53°
2026-05-06 15:03 -20.89890 55.49014 39858 ft 491 kts 53°
2026-05-06 15:04 -20.87969 55.52008 39263 ft 489 kts 59°
2026-05-06 15:04 -20.86176 55.55111 38623 ft 490 kts 60°
2026-05-06 15:04 -20.84428 55.58230 37908 ft 489 kts 60°
2026-05-06 15:04 -20.82696 55.61369 37264 ft 488 kts 61°
2026-05-06 15:05 -20.80977 55.64501 36609 ft 488 kts 61°
2026-05-06 15:05 -20.79260 55.67629 35957 ft 488 kts 61°
2026-05-06 15:05 -20.77536 55.70761 35261 ft 489 kts 61°
2026-05-06 15:05 -20.75810 55.73887 34744 ft 487 kts 61°
2026-05-06 15:06 -20.74093 55.76988 34226 ft 484 kts 61°
2026-05-06 15:06 -20.72383 55.80072 33685 ft 481 kts 61°
2026-05-06 15:06 -20.70689 55.83125 33154 ft 478 kts 61°
2026-05-06 15:06 -20.69003 55.86159 32644 ft 474 kts 61°
2026-05-06 15:07 -20.67571 55.88736 32208 ft 471 kts 61°
2026-05-06 15:07 -20.65907 55.91730 31720 ft 467 kts 62°
2026-05-06 15:07 -20.64250 55.94709 31217 ft 464 kts 62°
2026-05-06 15:07 -20.62612 55.97653 30731 ft 460 kts 62°
2026-05-06 15:08 -20.60979 56.00588 30215 ft 457 kts 62°
2026-05-06 15:08 -20.59362 56.03492 29680 ft 454 kts 62°
2026-05-06 15:08 -20.57756 56.06375 29181 ft 449 kts 62°
2026-05-06 15:08 -20.56176 56.09209 28688 ft 444 kts 62°
2026-05-06 15:09 -20.54599 56.12036 28219 ft 439 kts 62°
2026-05-06 15:09 -20.53043 56.14826 27736 ft 435 kts 61°
2026-05-06 15:09 -20.51503 56.17586 27259 ft 431 kts 61°
2026-05-06 15:09 -20.49975 56.20321 26803 ft 427 kts 61°
2026-05-06 15:10 -20.48460 56.23033 26315 ft 424 kts 61°
2026-05-06 15:10 -20.46957 56.25724 25843 ft 421 kts 61°
2026-05-06 15:10 -20.45463 56.28395 25366 ft 418 kts 61°
2026-05-06 15:10 -20.43981 56.31044 24888 ft 415 kts 60°
2026-05-06 15:11 -20.42507 56.33678 24408 ft 412 kts 61°
2026-05-06 15:11 -20.41040 56.36296 23947 ft 410 kts 60°
2026-05-06 15:11 -20.39582 56.38899 23437 ft 408 kts 60°
2026-05-06 15:11 -20.38131 56.41487 22924 ft 405 kts 60°
2026-05-06 15:12 -20.36693 56.44049 22427 ft 400 kts 60°
2026-05-06 15:12 -20.35272 56.46582 21966 ft 396 kts 60°
2026-05-06 15:12 -20.33865 56.49087 21503 ft 392 kts 61°
2026-05-06 15:12 -20.32472 56.51568 21023 ft 388 kts 60°
2026-05-06 15:13 -20.31092 56.54025 20575 ft 385 kts 61°
2026-05-06 15:13 -20.29722 56.56464 20116 ft 382 kts 60°
2026-05-06 15:13 -20.28562 56.58976 19663 ft 376 kts 72°
2026-05-06 15:13 -20.27993 56.61670 19210 ft 371 kts 84°
2026-05-06 15:14 -20.27782 56.64399 18750 ft 368 kts 89°
2026-05-06 15:14 -20.27732 56.67111 18301 ft 365 kts 91°
2026-05-06 15:14 -20.27763 56.69803 17818 ft 362 kts 92°
2026-05-06 15:14 -20.27820 56.72468 17364 ft 358 kts 93°
2026-05-06 15:15 -20.27875 56.75098 16941 ft 353 kts 92°
2026-05-06 15:15 -20.27918 56.77699 16510 ft 349 kts 91°
2026-05-06 15:15 -20.27949 56.80271 16090 ft 346 kts 91°
2026-05-06 15:15 -20.27970 56.82814 15661 ft 342 kts 91°
2026-05-06 15:16 -20.27985 56.85331 15243 ft 338 kts 91°
2026-05-06 15:16 -20.27997 56.87827 14826 ft 335 kts 91°
2026-05-06 15:16 -20.28007 56.90299 14410 ft 332 kts 91°
2026-05-06 15:16 -20.28017 56.92745 14002 ft 329 kts 90°
2026-05-06 15:17 -20.28026 56.95165 13566 ft 326 kts 90°
2026-05-06 15:17 -20.28036 56.97561 13161 ft 322 kts 91°
2026-05-06 15:17 -20.28045 56.99925 12748 ft 321 kts 91°
2026-05-06 15:17 -20.28055 57.02301 12338 ft 320 kts 91°
2026-05-06 15:18 -20.28064 57.04665 11940 ft 319 kts 91°
2026-05-06 15:18 -20.28073 57.07018 11540 ft 317 kts 91°
2026-05-06 15:18 -20.28082 57.09360 11217 ft 312 kts 90°
2026-05-06 15:18 -20.28089 57.11622 11093 ft 299 kts 91°
2026-05-06 15:19 -20.28096 57.13784 10981 ft 286 kts 91°
2026-05-06 15:19 -20.28102 57.15863 10837 ft 277 kts 91°
2026-05-06 15:19 -20.28109 57.17905 10509 ft 275 kts 91°
2026-05-06 15:19 -20.28115 57.19964 10191 ft 274 kts 91°
2026-05-06 15:20 -20.28122 57.21953 9883 ft 277 kts 91°
2026-05-06 15:20 -20.28132 57.24070 9677 ft 291 kts 91°
2026-05-06 15:20 -20.28304 57.26230 9518 ft 289 kts 93°
2026-05-06 15:20 -20.28302 57.28344 9029 ft 290 kts 89°
2026-05-06 15:21 -20.28245 57.30521 8578 ft 289 kts 89°
2026-05-06 15:21 -20.28182 57.32660 8120 ft 289 kts 88°
2026-05-06 15:21 -20.28147 57.34796 7585 ft 291 kts 92°
2026-05-06 15:21 -20.28385 57.36906 7114 ft 291 kts 102°
2026-05-06 15:22 -20.28987 57.38981 6679 ft 289 kts 111°
2026-05-06 15:22 -20.29827 57.40916 6257 ft 287 kts 116°
2026-05-06 15:22 -20.30438 57.42158 5977 ft 285 kts 117°
2026-05-06 15:22 -20.31623 57.44595 5421 ft 275 kts 116°
2026-05-06 15:23 -20.32459 57.46367 5043 ft 262 kts 116°
2026-05-06 15:23 -20.33269 57.48064 4691 ft 250 kts 116°
2026-05-06 15:23 -20.33771 57.49092 4462 ft 242 kts 117°
2026-05-06 15:23 -20.34758 57.51142 3941 ft 228 kts 116°
2026-05-06 15:24 -20.35234 57.52142 3719 ft 221 kts 116°
2026-05-06 15:24 -20.35921 57.53569 3401 ft 211 kts 116°
2026-05-06 15:24 -20.36566 57.54915 3111 ft 197 kts 116°
2026-05-06 15:24 -20.37033 57.55886 2874 ft 187 kts 116°
2026-05-06 15:25 -20.37608 57.57084 2574 ft 177 kts 115°
2026-05-06 15:25 -20.38149 57.58213 2305 ft 164 kts 116°
2026-05-06 15:25 -20.38651 57.59257 2060 ft 153 kts 114°
2026-05-06 15:25 -20.39118 57.60230 1831 ft 142 kts 114°
2026-05-06 15:26 -20.39558 57.61147 1639 ft 134 kts 114°
2026-05-06 15:26 -20.39976 57.62020 1419 ft 132 kts 115°
2026-05-06 15:26 -20.40393 57.62889 1234 ft 132 kts 115°
2026-05-06 15:26 -20.40809 57.63755 1029 ft 131 kts 115°
2026-05-06 15:27 -20.41230 57.64632 826 ft 136 kts 114°
2026-05-06 15:27 -20.41659 57.65525 645 ft 133 kts 114°
2026-05-06 15:27 -20.42083 57.66399 407 ft 131 kts 115°
2026-05-06 15:27 -20.42494 57.67262 230 ft 133 kts 117°
2026-05-06 15:28 -20.42870 57.68034 205 ft 85 kts 116°
2026-05-06 15:28 -20.43021 57.68346 203 ft 15 kts 117°
2026-05-06 15:28 -20.43075 57.68446 194 ft 16 kts 135°
2026-05-06 15:28 -20.43176 57.68439 200 ft 16 kts 204°
2026-05-06 15:29 -20.43214 57.68347 193 ft 15 kts 294°
2026-05-06 15:29 -20.43167 57.68250 207 ft 14 kts 297°
2026-05-06 15:29 -20.43132 57.68147 202 ft 15 kts 262°
2026-05-06 15:29 -20.43167 57.68098 206 ft 6 kts 222°
2026-05-06 15:30 -20.43201 57.68055 208 ft 9 kts 236°
2026-05-06 15:30 -20.43240 57.67991 205 ft 11 kts 237°
2026-05-06 15:30 -20.43256 57.67964 208 ft 0 kts 237°
2026-05-06 15:30 -20.43259 57.67959 204 ft 0 kts 237°